Regional Weather Roundup
Issued by NWS

Home | Current Version | Previous Version | Text Only | Print | Product List | Glossary On
Versions: 1 2 3 4 5 6 7 8 9 10 11 12 13 14 15 16 17 18 19 20 21 22 23 24 25 26 27 28
000
ASUS46 KPQR 221610
RWROR

OREGON REGIONAL WEATHER ROUNDUP
NATIONAL WEATHER SERVICE PORTLAND OR
900 AM PDT MON MAY 22 2017

NOTE: "FAIR" INDICATES FEW OR NO CLOUDS BELOW 12,000 FEET WITH
NO SIGNIFICANT WEATHER AND/OR OBSTRUCTIONS TO VISIBILITY.

ORZ001>013-221700-
NORTHWEST OREGON


CITY           SKY/WX    TMP DP  RH WIND       PRES   REMARKS
ASTORIA        MOSUNNY   63  52  67 NW6       30.10S
NEWPORT        SUNNY     59  54  82 NW7       30.09R
PORTLAND       MOSUNNY   68  53  58 W7        30.09F
VANCOUVER WA   SUNNY     69  56  62 NW8       30.08F
SCAPPOOSE      SUNNY     71  54  54 NE9       30.08S
HILLSBORO      SUNNY     70  56  61 CALM      30.08S
AURORA         SUNNY     72  53  51 N9        30.08F
MCMINNVILLE    SUNNY     73  55  53 N7        30.08S
SALEM          SUNNY     69  53  56 NE7       30.07F
CORVALLIS      SUNNY     72  54  53 CALM      30.09S
EUGENE         MOSUNNY   66  57  72 N7        30.08S
$$

ORZ021-028-221700-
SOUTHWEST OREGON


CITY           SKY/WX    TMP DP  RH WIND       PRES   REMARKS
NORTH BEND     MOSUNNY   57  55  94 CALM      30.04F
BROOKINGS      SUNNY     62  55  77 CALM      29.99S
ROSEBURG       SUNNY     66  56  70 CALM      30.07S
SEXTON SUMMIT  SUNNY     70  40  33 E7        30.15R
MEDFORD        SUNNY     66  51  58 N3        30.08F
$$

ORZ014>016-041-221700-
COLUMBIA GORGE


CITY           SKY/WX    TMP DP  RH WIND       PRES   REMARKS
TROUTDALE      SUNNY     67  55  65 NW3       30.08F
HOOD RIVER     SUNNY     64  52  63 CALM      30.17S
THE DALLES     SUNNY     67  52  58 CALM      30.16S
$$

ORZ029>031-041-044-049-050-061>064-502-503-505>511-221700-
EASTERN OREGON


CITY           SKY/WX    TMP DP  RH WIND       PRES   REMARKS
REDMOND        SUNNY     65  45  48 VRB3      30.22R
BEND           SUNNY     64  46  52 CALM      30.17S
PRINEVILLE     SUNNY     64  48  55 MISG      30.23S
KLAMATH FALLS  SUNNY     64  47  53 NW6       30.21S
HERMISTON      SUNNY     68  55  63 VRB3      30.16S
PENDLETON      SUNNY     67  54  63 SE3       30.18R
JOHN DAY       SUNNY     64  47  54 CALM      30.24S
MEACHAM        SUNNY     65  39  38 CALM      30.25R
LA GRANDE      SUNNY     59  46  63 NE3       30.24S
BAKER CITY     SUNNY     60  48  64 SW3       30.25S
BURNS          SUNNY     62  43  49 VRB3      30.26S
ROME             N/A     65  41  41 VRB3      30.25S
ONTARIO        SUNNY     65  49  56 CALM      30.22S
$$




USA.gov is the U.S. government's official web portal to all federal, state and local government web resources and services.